Releases

[Show "Revision History"] [Show "General Page Infos"] [Show "Page hits and edits"]

Revision History

Showing page edit history entries from 283 to 332 out of 332 entries total. (5 | 10 | 25 | 50 | 100 | 200 items per page)

# Date Size Editor Comment Action
332 2022-05-28 06:56:04 36455 to previous ginggs   view
331 2022-05-28 06:52:07 36198 to previous ginggs   view
330 2022-05-02 12:15:29 35950 to previous guiverc email from littlegirl@gmail.com to ubuntu-doc noted no LTS on 22.04 LTS view
329 2022-04-26 16:14:53 35941 to previous paride KK -> Kinetic Kudu (fixup) view
328 2022-04-26 16:13:35 35932 to previous paride KK -> Kinetic Kudu view
327 2022-04-21 17:38:30 35905 to previous paride Move Jammy to released view
326 2022-04-20 11:11:20 35576 to previous paride   view
325 2022-03-28 19:18:36 35556 to previous ian-weisser Restore visible column headers, apparently hidden by revision 267 view
324 2022-02-25 10:12:03 35472 to previous sil2100 Adding 20.04.4 view
323 2022-01-28 00:51:50 35022 to previous brian-murray   view
322 2022-01-20 19:49:52 34944 to previous brian-murray   view
321 2021-10-21 22:07:07 34976 to previous brian-murray   view
320 2021-10-19 11:03:00 34518 to previous gjolly Add link to hirsute release announcement view
319 2021-10-18 08:43:35 34439 to previous gjolly JJ is now known as Jammy Jellyfish view
318 2021-10-15 03:16:53 34420 to previous seth-arnold Impish Indri is released view
317 2021-10-06 11:56:13 34306 to previous laney Fix Impish release notes link view
316 2021-09-21 07:23:24 34297 to previous nmavrogiannopoulos updated for new lifecycle view
315 2021-09-17 15:18:46 34203 to previous nmavrogiannopoulos updated ESM table view
314 2021-09-03 22:46:20 33895 to previous brian-murray   view
313 2021-09-03 22:42:07 33896 to previous brian-murray   view
312 2021-09-03 22:40:04 33902 to previous brian-murray   view
311 2021-07-25 13:08:32 33449 to previous brian-murray   view
310 2021-07-22 21:23:16 33374 to previous brian-murray   view
309 2021-05-03 19:20:45 33325 to previous nmavrogiannopoulos added link to packages view
308 2021-05-03 16:52:56 33315 to previous vorlon ESM EOL date for 20.04 per https://ubuntu.com/about/release-cycle view
307 2021-04-22 16:43:15 33294 to previous laney Move Hirsute to current view
306 2021-04-22 14:24:21 33258 to previous brian-murray Add in impish view
305 2021-04-22 12:08:54 33245 to previous laney   view
304 2021-02-16 22:53:50 33032 to previous gene.wood Adding 20.04.2 view
303 2021-01-29 19:10:16 32596 to previous stefanor Correct link for 6.10 EOL view
302 2020-10-28 19:04:03 32596 to previous brian-murray It has a name. view
301 2020-10-23 14:31:39 32571 to previous brian-murray   view
300 2020-08-19 16:01:46 32926 to previous brian-murray Add 18.04.5 and 16.04.7 view
299 2020-08-06 23:29:15 32024 to previous seth-arnold 20.04.1 release view
298 2020-07-20 08:16:00 31580 to previous laney   view
297 2020-06-25 10:40:10 31532 to previous gunnarhj   view
296 2020-06-23 14:36:12 31562 to previous gunnarhj 21.04 and 21.10 moved to "Future" https://lists.ubuntu.com/archives/ubuntu-doc/2020-June/020735.html view
295 2020-05-19 18:33:02 31631 to previous vorlon   view
294 2020-05-19 18:30:18 31366 to previous vorlon HH release date projection view
293 2020-05-19 18:27:01 31124 to previous vorlon   view
292 2020-05-19 18:25:12 31130 to previous vorlon   view
291 2020-05-19 18:23:17 31133 to previous vorlon groovy view
290 2020-04-26 15:09:19 30858 to previous cjwatson update for 20.04 release and 20.10 opening view
289 2020-03-13 21:11:04 30373 to previous brian-murray   view
288 2020-02-17 10:43:31 30375 to previous fheimes   view
287 2020-01-24 04:06:23 29914 to previous guiverc replace announce notice (reaching) 252 with 253 (past tense; reached) view
286 2020-01-23 12:59:42 29914 to previous guiverc 19.04 reached EOL today (23-Jan-2020) view
285 2019-10-28 15:51:59 29872 to previous rcj Update Focal Release schedule (was pointing at Eoan) view
284 2019-10-19 00:39:04 29872 to previous seth-arnold move eoan ermine to current; add provisional entry for focal fossa to fuiture view
283 2019-10-16 15:59:46 29496 to previous brian-murray   view